Saint Bonnet de Bellac- Haute Vienne - France
Donnes mto: jeudi, 29/12/2011
Date Horaire Temp. E. Hum. E. P.atmo. Pluie Vent Direction Direction Ensoleilleme Solaire P. de rose Temp au vent Rafales
29/12/2011 00:00 5,9 C 94 % 1030,5 hPa 0,0 mm 9,0 km/h (2 Bft) NO 315 0 min 0 W/m 5,0 C 4,0 C 9,0 km/h (2 Bft)
29/12/2011 00:05 5,8 C 94 % 1030,6 hPa 0,0 mm 3,6 km/h (1 Bft) N-NO 337 0 min 0 W/m 4,9 C 5,8 C 3,6 km/h (1 Bft)
29/12/2011 00:10 5,8 C 94 % 1030,6 hPa 0,0 mm 7,2 km/h (2 Bft) NO 315 0 min 0 W/m 4,9 C 4,3 C 11,5 km/h (2 Bft)
29/12/2011 00:15 5,7 C 94 % 1030,7 hPa 0,0 mm 2,2 km/h (1 Bft) NO 315 0 min 0 W/m 4,8 C 5,7 C 4,7 km/h (1 Bft)
29/12/2011 00:20 5,6 C 94 % 1030,7 hPa 0,0 mm 4,3 km/h (1 Bft) NO 315 0 min 0 W/m 4,7 C 5,6 C 8,6 km/h (2 Bft)
29/12/2011 00:25 5,6 C 94 % 1030,7 hPa 0,0 mm 5,0 km/h (1 Bft) N 360 0 min 0 W/m 4,7 C 4,8 C 8,3 km/h (2 Bft)
29/12/2011 00:30 5,5 C 94 % 1030,7 hPa 0,0 mm 11,9 km/h (2 Bft) NO 315 0 min 0 W/m 4,6 C 2,9 C 15,5 km/h (3 Bft)
29/12/2011 00:35 5,4 C 94 % 1030,7 hPa 0,0 mm 2,5 km/h (1 Bft) NO 315 0 min 0 W/m 4,5 C 5,4 C 5,8 km/h (2 Bft)
29/12/2011 00:40 5,3 C 94 % 1030,8 hPa 0,0 mm 5,0 km/h (1 Bft) NO 315 0 min 0 W/m 4,4 C 4,4 C 8,6 km/h (2 Bft)
29/12/2011 00:45 5,1 C 94 % 1030,7 hPa 0,0 mm 0,4 km/h (0 Bft) N-NO 337 0 min 0 W/m 4,2 C 5,1 C 4,0 km/h (1 Bft)
29/12/2011 00:50 5,0 C 94 % 1030,7 hPa 0,0 mm 1,1 km/h (1 Bft) NO 315 0 min 0 W/m 4,1 C 5,0 C 2,9 km/h (1 Bft)
29/12/2011 00:55 4,8 C 94 % 1030,9 hPa 0,0 mm 2,5 km/h (1 Bft) NO 315 0 min 0 W/m 3,9 C 4,8 C 4,3 km/h (1 Bft)
29/12/2011 01:00 4,6 C 94 % 1030,8 hPa 0,0 mm 2,5 km/h (1 Bft) NO 315 0 min 0 W/m 3,7 C 4,6 C 4,3 km/h (1 Bft)
29/12/2011 01:05 4,5 C 94 % 1030,7 hPa 0,0 mm 1,4 km/h (1 Bft) NO 315 0 min 0 W/m 3,6 C 4,5 C 3,2 km/h (1 Bft)
29/12/2011 01:10 4,4 C 94 % 1030,8 hPa 0,0 mm 1,4 km/h (1 Bft) NO 315 0 min 0 W/m 3,5 C 4,4 C 1,4 km/h (1 Bft)
29/12/2011 01:15 4,2 C 94 % 1030,7 hPa 0,0 mm 0,4 km/h (0 Bft) NO 315 0 min 0 W/m 3,3 C 4,2 C 3,2 km/h (1 Bft)
29/12/2011 01:20 4,1 C 94 % 1030,8 hPa 0,0 mm 1,4 km/h (1 Bft) NO 315 0 min 0 W/m 3,2 C 4,1 C 3,6 km/h (1 Bft)
29/12/2011 01:25 3,9 C 94 % 1030,9 hPa 0,0 mm 0,7 km/h (0 Bft) N-NO 337 0 min 0 W/m 3,0 C 3,9 C 0,7 km/h (0 Bft)
29/12/2011 01:30 3,8 C 94 % 1030,9 hPa 0,0 mm 0,0 km/h (0 Bft) NO 315 0 min 0 W/m 2,9 C 3,8 C 0,0 km/h (0 Bft)
29/12/2011 01:35 3,7 C 94 % 1030,8 hPa 0,0 mm 0,0 km/h (0 Bft) NO 315 0 min 0 W/m 2,8 C 3,7 C 0,0 km/h (0 Bft)
29/12/2011 01:40 3,6 C 94 % 1030,8 hPa 0,0 mm 6,1 km/h (2 Bft) NO 315 0 min 0 W/m 2,7 C 2,1 C 11,2 km/h (2 Bft)
29/12/2011 01:45 3,4 C 94 % 1030,8 hPa 0,0 mm 1,1 km/h (1 Bft) NO 315 0 min 0 W/m 2,5 C 3,4 C 4,0 km/h (1 Bft)
29/12/2011 01:50 3,4 C 94 % 1030,8 hPa 0,0 mm 2,2 km/h (1 Bft) NO 315 0 min 0 W/m 2,5 C 3,4 C 6,1 km/h (2 Bft)
29/12/2011 01:55 3,3 C 94 % 1031,0 hPa 0,0 mm 1,1 km/h (1 Bft) NO 315 0 min 0 W/m 2,4 C 3,3 C 3,6 km/h (1 Bft)
29/12/2011 02:02 3,2 C 94 % 1031,0 hPa 0,0 mm 1,1 km/h (1 Bft) NO 315 0 min 0 W/m 2,3 C 3,2 C 3,6 km/h (1 Bft)
29/12/2011 02:05 3,1 C 94 % 1031,0 hPa 0,0 mm 2,2 km/h (1 Bft) NO 315 0 min 0 W/m 2,2 C 3,1 C 3,2 km/h (1 Bft)
29/12/2011 02:10 3,1 C 94 % 1031,0 hPa 0,0 mm 0,0 km/h (0 Bft) NO 315 0 min 0 W/m 2,2 C 3,1 C 0,0 km/h (0 Bft)
29/12/2011 02:15 2,9 C 94 % 1031,1 hPa 0,0 mm 0,0 km/h (0 Bft) NO 315 0 min 0 W/m 2,0 C 2,9 C 0,0 km/h (0 Bft)
29/12/2011 02:20 2,8 C 94 % 1031,0 hPa 0,0 mm 0,0 km/h (0 Bft) NO 315 0 min 0 W/m 1,9 C 2,8 C 0,0 km/h (0 Bft)
29/12/2011 02:25 2,8 C 94 % 1031,1 hPa 0,0 mm 0,0 km/h (0 Bft) N-NO 337 0 min 0 W/m 1,9 C 2,8 C 0,0 km/h (0 Bft)
29/12/2011 02:30 2,6 C 94 % 1031,1 hPa 0,0 mm 0,0 km/h (0 Bft) NO 315 0 min 0 W/m 1,7 C 2,6 C 0,0 km/h (0 Bft)
29/12/2011 02:35 2,5 C 94 % 1031,1 hPa 0,0 mm 0,0 km/h (0 Bft) NO 315 0 min 0 W/m 1,6 C 2,5 C 0,0 km/h (0 Bft)
29/12/2011 02:40 2,3 C 94 % 1031,1 hPa 0,0 mm 0,0 km/h (0 Bft) O 270 0 min 0 W/m 1,4 C 2,3 C 0,0 km/h (0 Bft)
29/12/2011 02:45 2,3 C 94 % 1031,0 hPa 0,0 mm 0,0 km/h (0 Bft) NO 315 0 min 0 W/m 1,4 C 2,3 C 0,0 km/h (0 Bft)
29/12/2011 02:50 2,2 C 94 % 1031,1 hPa 0,0 mm 0,4 km/h (0 Bft) O 270 0 min 0 W/m 1,3 C 2,2 C 0,4 km/h (0 Bft)
29/12/2011 02:55 2,2 C 94 % 1031,1 hPa 0,0 mm 0,0 km/h (0 Bft) O 270 0 min 0 W/m 1,3 C 2,2 C 0,0 km/h (0 Bft)
29/12/2011 03:00 2,1 C 94 % 1031,1 hPa 0,0 mm 0,0 km/h (0 Bft) O-NO 292 0 min 0 W/m 1,2 C 2,1 C 0,0 km/h (0 Bft)
29/12/2011 03:05 2,1 C 94 % 1031,2 hPa 0,0 mm 0,4 km/h (0 Bft) NO 315 0 min 0 W/m 1,2 C 2,1 C 4,0 km/h (1 Bft)
29/12/2011 03:10 2,0 C 94 % 1031,3 hPa 0,0 mm 0,0 km/h (0 Bft) NO 315 0 min 0 W/m 1,1 C 2,0 C 0,0 km/h (0 Bft)
29/12/2011 03:15 1,9 C 94 % 1031,4 hPa 0,0 mm 1,1 km/h (1 Bft) O 270 0 min 0 W/m 1,0 C 1,9 C 1,1 km/h (1 Bft)
29/12/2011 03:20 1,9 C 94 % 1031,5 hPa 0,0 mm 0,4 km/h (0 Bft) NO 315 0 min 0 W/m 1,0 C 1,9 C 0,4 km/h (0 Bft)
29/12/2011 03:25 1,8 C 94 % 1031,4 hPa 0,0 mm 0,0 km/h (0 Bft) O 270 0 min 0 W/m 0,9 C 1,8 C 0,0 km/h (0 Bft)
29/12/2011 03:30 1,8 C 94 % 1031,5 hPa 0,0 mm 0,0 km/h (0 Bft) O 270 0 min 0 W/m 0,9 C 1,8 C 0,0 km/h (0 Bft)
29/12/2011 03:35 1,8 C 94 % 1031,5 hPa 0,0 mm 1,1 km/h (1 Bft) O-NO 292 0 min 0 W/m 0,9 C 1,8 C 3,2 km/h (1 Bft)
29/12/2011 03:40 1,8 C 94 % 1031,4 hPa 0,0 mm 0,0 km/h (0 Bft) O-NO 292 0 min 0 W/m 0,9 C 1,8 C 0,0 km/h (0 Bft)
29/12/2011 03:45 1,8 C 94 % 1031,5 hPa 0,0 mm 0,0 km/h (0 Bft) O 270 0 min 0 W/m 0,9 C 1,8 C 0,0 km/h (0 Bft)
29/12/2011 03:50 1,7 C 94 % 1031,6 hPa 0,0 mm 0,4 km/h (0 Bft) O 270 0 min 0 W/m 0,8 C 1,7 C 3,2 km/h (1 Bft)
29/12/2011 03:55 1,6 C 94 % 1031,5 hPa 0,0 mm 0,0 km/h (0 Bft) O 270 0 min 0 W/m 0,7 C 1,6 C 0,0 km/h (0 Bft)
29/12/2011 04:00 1,6 C 94 % 1031,5 hPa 0,0 mm 0,0 km/h (0 Bft) O 270 0 min 0 W/m 0,7 C 1,6 C 0,0 km/h (0 Bft)
29/12/2011 04:05 1,5 C 94 % 1031,6 hPa 0,0 mm 0,0 km/h (0 Bft) O 270 0 min 0 W/m 0,6 C 1,5 C 0,0 km/h (0 Bft)
29/12/2011 04:10 1,4 C 94 % 1031,6 hPa 0,0 mm 0,0 km/h (0 Bft) O 270 0 min 0 W/m 0,5 C 1,4 C 0,0 km/h (0 Bft)
29/12/2011 04:15 1,4 C 94 % 1031,7 hPa 0,0 mm 0,0 km/h (0 Bft) O-SO 247 0 min 0 W/m 0,5 C 1,4 C 0,0 km/h (0 Bft)
29/12/2011 04:20 1,4 C 94 % 1031,7 hPa 0,0 mm 0,0 km/h (0 Bft) O-SO 247 0 min 0 W/m 0,5 C 1,4 C 0,0 km/h (0 Bft)
29/12/2011 04:25 1,3 C 94 % 1031,7 hPa 0,0 mm 0,0 km/h (0 Bft) O-SO 247 0 min 0 W/m 0,4 C 1,3 C 0,0 km/h (0 Bft)
29/12/2011 04:30 1,2 C 94 % 1031,6 hPa 0,0 mm 0,0 km/h (0 Bft) O-SO 247 0 min 0 W/m 0,3 C 1,2 C 0,0 km/h (0 Bft)
29/12/2011 04:35 1,1 C 94 % 1031,6 hPa 0,0 mm 0,0 km/h (0 Bft) O-SO 247 0 min 0 W/m 0,2 C 1,1 C 0,0 km/h (0 Bft)
29/12/2011 04:40 1,1 C 94 % 1031,7 hPa 0,0 mm 0,0 km/h (0 Bft) O 270 0 min 0 W/m 0,2 C 1,1 C 0,0 km/h (0 Bft)
29/12/2011 04:45 1,0 C 94 % 1031,8 hPa 0,0 mm 0,0 km/h (0 Bft) NO 315 0 min 0 W/m 0,1 C 1,0 C 0,0 km/h (0 Bft)
29/12/2011 04:50 0,9 C 94 % 1031,8 hPa 0,0 mm 0,0 km/h (0 Bft) NO 315 0 min 0 W/m 0,0 C 0,9 C 0,0 km/h (0 Bft)
29/12/2011 04:55 0,9 C 94 % 1031,8 hPa 0,0 mm 0,0 km/h (0 Bft) O-SO 247 0 min 0 W/m 0,0 C 0,9 C 0,0 km/h (0 Bft)
29/12/2011 05:00 0,9 C 94 % 1031,9 hPa 0,1 mm 0,0 km/h (0 Bft) O 270 0 min 0 W/m 0,0 C 0,9 C 0,0 km/h (0 Bft)
29/12/2011 05:05 0,8 C 94 % 1031,9 hPa 0,0 mm 0,0 km/h (0 Bft) O-SO 247 0 min 0 W/m -0,1 C 0,8 C 0,0 km/h (0 Bft)
29/12/2011 05:10 0,8 C 94 % 1032,0 hPa 0,0 mm 0,0 km/h (0 Bft) O-SO 247 0 min 0 W/m -0,1 C 0,8 C 0,0 km/h (0 Bft)
29/12/2011 05:15 0,8 C 95 % 1032,0 hPa 0,0 mm 0,0 km/h (0 Bft) O 270 0 min 0 W/m 0,1 C 0,8 C 0,0 km/h (0 Bft)
29/12/2011 05:20 0,8 C 95 % 1032,0 hPa 0,0 mm 0,0 km/h (0 Bft) O-NO 292 0 min 0 W/m 0,1 C 0,8 C 0,0 km/h (0 Bft)
29/12/2011 05:25 0,8 C 95 % 1032,0 hPa 0,0 mm 0,0 km/h (0 Bft) O-NO 292 0 min 0 W/m 0,1 C 0,8 C 0,0 km/h (0 Bft)
29/12/2011 05:30 0,8 C 95 % 1032,2 hPa 0,0 mm 0,0 km/h (0 Bft) O 270 0 min 0 W/m 0,1 C 0,8 C 0,0 km/h (0 Bft)
29/12/2011 05:35 0,6 C 95 % 1032,0 hPa 0,0 mm 0,0 km/h (0 Bft) O 270 0 min 0 W/m -0,1 C 0,6 C 0,0 km/h (0 Bft)
29/12/2011 05:40 0,6 C 95 % 1032,2 hPa 0,0 mm 0,0 km/h (0 Bft) O 270 0 min 0 W/m -0,1 C 0,6 C 0,0 km/h (0 Bft)
29/12/2011 05:45 0,5 C 95 % 1031,9 hPa 0,0 mm 0,0 km/h (0 Bft) O 270 0 min 0 W/m -0,2 C 0,5 C 0,0 km/h (0 Bft)
29/12/2011 05:50 0,5 C 95 % 1031,9 hPa 0,0 mm 0,0 km/h (0 Bft) O 270 0 min 0 W/m -0,2 C 0,5 C 0,0 km/h (0 Bft)
29/12/2011 05:55 0,5 C 95 % 1031,9 hPa 0,0 mm 0,0 km/h (0 Bft) O-SO 247 0 min 0 W/m -0,2 C 0,5 C 0,0 km/h (0 Bft)
29/12/2011 06:00 0,5 C 95 % 1031,9 hPa 0,0 mm 0,0 km/h (0 Bft) O-SO 247 0 min 0 W/m -0,2 C 0,5 C 0,0 km/h (0 Bft)
29/12/2011 06:05 0,5 C 95 % 1031,9 hPa 0,0 mm 0,0 km/h (0 Bft) O-SO 247 0 min 0 W/m -0,2 C 0,5 C 0,0 km/h (0 Bft)
29/12/2011 06:10 0,5 C 95 % 1031,8 hPa 0,0 mm 0,0 km/h (0 Bft) S-SO 202 0 min 0 W/m -0,2 C 0,5 C 0,0 km/h (0 Bft)
29/12/2011 06:15 0,4 C 95 % 1031,9 hPa 0,0 mm 0,0 km/h (0 Bft) O-SO 247 0 min 0 W/m -0,3 C 0,4 C 0,0 km/h (0 Bft)
29/12/2011 06:20 0,4 C 95 % 1032,0 hPa 0,0 mm 0,0 km/h (0 Bft) O-SO 247 0 min 0 W/m -0,3 C 0,4 C 0,0 km/h (0 Bft)
29/12/2011 06:25 0,3 C 95 % 1031,9 hPa 0,0 mm 0,0 km/h (0 Bft) O-SO 247 0 min 0 W/m -0,4 C 0,3 C 0,0 km/h (0 Bft)
29/12/2011 06:30 0,3 C 95 % 1031,9 hPa 0,0 mm 0,0 km/h (0 Bft) SO 225 0 min 0 W/m -0,4 C 0,3 C 0,0 km/h (0 Bft)
29/12/2011 06:35 0,3 C 95 % 1031,9 hPa 0,0 mm 0,0 km/h (0 Bft) SO 225 0 min 0 W/m -0,4 C 0,3 C 0,0 km/h (0 Bft)
29/12/2011 06:40 0,3 C 95 % 1032,0 hPa 0,0 mm 0,0 km/h (0 Bft) O 270 0 min 0 W/m -0,4 C 0,3 C 0,0 km/h (0 Bft)
29/12/2011 06:45 0,3 C 94 % 1032,0 hPa 0,0 mm 0,4 km/h (0 Bft) O 270 0 min 0 W/m -0,5 C 0,3 C 0,4 km/h (0 Bft)
29/12/2011 06:50 0,3 C 95 % 1032,0 hPa 0,0 mm 0,0 km/h (0 Bft) O-SO 247 0 min 0 W/m -0,4 C 0,3 C 0,0 km/h (0 Bft)
29/12/2011 06:55 0,4 C 95 % 1032,1 hPa 0,0 mm 0,0 km/h (0 Bft) SO 225 0 min 0 W/m -0,3 C 0,4 C 0,0 km/h (0 Bft)
29/12/2011 07:00 0,3 C 95 % 1032,3 hPa 0,0 mm 0,0 km/h (0 Bft) SO 225 0 min 0 W/m -0,4 C 0,3 C 0,0 km/h (0 Bft)
29/12/2011 07:05 0,3 C 95 % 1032,2 hPa 0,0 mm 0,0 km/h (0 Bft) SO 225 0 min 0 W/m -0,4 C 0,3 C 0,0 km/h (0 Bft)
29/12/2011 07:10 0,3 C 94 % 1032,2 hPa 0,0 mm 0,4 km/h (0 Bft) O-SO 247 0 min 0 W/m -0,5 C 0,3 C 3,2 km/h (1 Bft)
29/12/2011 07:15 0,3 C 94 % 1032,2 hPa 0,0 mm 0,0 km/h (0 Bft) SO 225 0 min 0 W/m -0,5 C 0,3 C 0,0 km/h (0 Bft)
29/12/2011 07:20 0,3 C 94 % 1032,2 hPa 0,0 mm 0,0 km/h (0 Bft) SO 225 0 min 0 W/m -0,5 C 0,3 C 0,0 km/h (0 Bft)
29/12/2011 07:25 0,2 C 94 % 1032,2 hPa 0,0 mm 0,0 km/h (0 Bft) SO 225 0 min 0 W/m -0,6 C 0,2 C 0,0 km/h (0 Bft)
29/12/2011 07:30 0,1 C 94 % 1032,3 hPa 0,0 mm 1,1 km/h (1 Bft) S-SO 202 0 min 0 W/m -0,7 C 0,1 C 3,2 km/h (1 Bft)
29/12/2011 07:35 0,1 C 94 % 1032,4 hPa 0,0 mm 0,0 km/h (0 Bft) S-SO 202 0 min 0 W/m -0,7 C 0,1 C 0,0 km/h (0 Bft)
29/12/2011 07:40 0,1 C 94 % 1032,4 hPa 0,0 mm 0,0 km/h (0 Bft) SO 225 0 min 0 W/m -0,7 C 0,1 C 0,0 km/h (0 Bft)
29/12/2011 07:45 0,0 C 95 % 1032,5 hPa 0,0 mm 0,0 km/h (0 Bft) O 270 0 min 0 W/m -0,7 C 0,0 C 0,0 km/h (0 Bft)
29/12/2011 07:50 0,0 C 95 % 1032,6 hPa 0,0 mm 0,0 km/h (0 Bft) O 270 0 min 0 W/m -0,7 C 0,0 C 0,0 km/h (0 Bft)
29/12/2011 07:55 0,1 C 95 % 1032,7 hPa 0,0 mm 0,0 km/h (0 Bft) SO 225 0 min 0 W/m -0,6 C 0,1 C 0,0 km/h (0 Bft)
29/12/2011 08:00 0,1 C 95 % 1032,7 hPa 0,0 mm 0,0 km/h (0 Bft) O-SO 247 0 min 0 W/m -0,6 C 0,1 C 0,0 km/h (0 Bft)
29/12/2011 08:05 0,1 C 95 % 1032,8 hPa 0,0 mm 0,0 km/h (0 Bft) O-SO 247 0 min 0 W/m -0,6 C 0,1 C 0,0 km/h (0 Bft)
29/12/2011 08:10 0,1 C 95 % 1032,9 hPa 0,0 mm 0,0 km/h (0 Bft) SO 225 0 min 0 W/m -0,6 C 0,1 C 0,0 km/h (0 Bft)
29/12/2011 08:15 0,0 C 95 % 1032,9 hPa 0,0 mm 0,0 km/h (0 Bft) O-SO 247 0 min 0 W/m -0,7 C 0,0 C 0,0 km/h (0 Bft)
29/12/2011 08:20 0,0 C 95 % 1032,7 hPa 0,0 mm 2,2 km/h (1 Bft) S-SO 202 0 min 0 W/m -0,7 C 0,0 C 4,3 km/h (1 Bft)
29/12/2011 08:25 0,0 C 95 % 1032,7 hPa 0,0 mm 0,0 km/h (0 Bft) SO 225 0 min 0 W/m -0,7 C 0,0 C 0,0 km/h (0 Bft)
29/12/2011 08:30 -0,1 C 95 % 1032,8 hPa 0,0 mm 0,0 km/h (0 Bft) O-SO 247 0 min 0 W/m -0,8 C -0,1 C 0,0 km/h (0 Bft)
29/12/2011 08:35 -0,1 C 95 % 1032,7 hPa 0,0 mm 0,0 km/h (0 Bft) S-SO 202 0 min 0 W/m -0,8 C -0,1 C 0,0 km/h (0 Bft)
29/12/2011 08:40 -0,2 C 95 % 1032,7 hPa 0,0 mm 0,0 km/h (0 Bft) SO 225 0 min 0 W/m -0,9 C -0,2 C 0,0 km/h (0 Bft)
29/12/2011 08:45 -0,2 C 95 % 1032,6 hPa 0,0 mm 1,8 km/h (1 Bft) S-SO 202 0 min 0 W/m -0,9 C -0,2 C 4,0 km/h (1 Bft)
29/12/2011 08:50 -0,2 C 95 % 1032,7 hPa 0,0 mm 0,0 km/h (0 Bft) SO 225 0 min 0 W/m -0,9 C -0,2 C 0,0 km/h (0 Bft)
29/12/2011 08:55 -0,2 C 95 % 1032,6 hPa 0,0 mm 2,2 km/h (1 Bft) S-SO 202 0 min 0 W/m -0,9 C -0,2 C 4,0 km/h (1 Bft)
29/12/2011 09:00 -0,2 C 95 % 1032,6 hPa 0,0 mm 0,7 km/h (0 Bft) S-SO 202 0 min 0 W/m -0,9 C -0,2 C 4,3 km/h (1 Bft)
29/12/2011 09:05 -0,2 C 95 % 1032,7 hPa 0,0 mm 0,0 km/h (0 Bft) SO 225 0 min 0 W/m -0,9 C -0,2 C 0,0 km/h (0 Bft)
29/12/2011 09:10 -0,1 C 95 % 1032,7 hPa 0,0 mm 0,4 km/h (0 Bft) SO 225 0 min 0 W/m -0,8 C -0,1 C 3,2 km/h (1 Bft)
29/12/2011 09:15 -0,1 C 95 % 1032,7 hPa 0,0 mm 0,0 km/h (0 Bft) SO 225 0 min 0 W/m -0,8 C -0,1 C 0,0 km/h (0 Bft)
29/12/2011 09:20 0,1 C 95 % 1032,7 hPa 0,0 mm 0,0 km/h (0 Bft) SO 225 0 min 0 W/m -0,6 C 0,1 C 0,0 km/h (0 Bft)
29/12/2011 09:25 0,2 C 95 % 1032,8 hPa 0,0 mm 0,0 km/h (0 Bft) SO 225 0 min 0 W/m -0,5 C 0,2 C 0,0 km/h (0 Bft)
29/12/2011 09:30 0,3 C 95 % 1032,8 hPa 0,0 mm 0,0 km/h (0 Bft) SO 225 0 min 0 W/m -0,4 C 0,3 C 0,0 km/h (0 Bft)
29/12/2011 09:35 0,5 C 95 % 1032,7 hPa 0,0 mm 0,0 km/h (0 Bft) S-SO 202 0 min 0 W/m -0,2 C 0,5 C 0,0 km/h (0 Bft)
29/12/2011 09:40 0,8 C 96 % 1032,8 hPa 0,0 mm 0,0 km/h (0 Bft) S-SO 202 0 min 0 W/m 0,2 C 0,8 C 0,0 km/h (0 Bft)
29/12/2011 09:45 0,9 C 96 % 1032,6 hPa 0,0 mm 0,0 km/h (0 Bft) S-SO 202 0 min 0 W/m 0,3 C 0,9 C 0,0 km/h (0 Bft)
29/12/2011 09:50 1,2 C 96 % 1032,6 hPa 0,0 mm 0,0 km/h (0 Bft) S-SO 202 0 min 0 W/m 0,6 C 1,2 C 0,0 km/h (0 Bft)
29/12/2011 09:55 1,4 C 96 % 1032,4 hPa 0,0 mm 1,4 km/h (1 Bft) S-SO 202 0 min 0 W/m 0,8 C 1,4 C 4,3 km/h (1 Bft)
29/12/2011 10:00 1,5 C 96 % 1032,4 hPa 0,0 mm 0,7 km/h (0 Bft) SO 225 0 min 0 W/m 0,9 C 1,5 C 0,7 km/h (0 Bft)
29/12/2011 10:05 1,8 C 96 % 1032,6 hPa 0,0 mm 0,4 km/h (0 Bft) S-SO 202 0 min 0 W/m 1,2 C 1,8 C 0,4 km/h (0 Bft)
29/12/2011 10:10 2,0 C 96 % 1032,8 hPa 0,0 mm 0,0 km/h (0 Bft) S-SO 202 0 min 0 W/m 1,4 C 2,0 C 0,0 km/h (0 Bft)
29/12/2011 10:15 2,3 C 96 % 1032,8 hPa 0,0 mm 0,4 km/h (0 Bft) SO 225 0 min 0 W/m 1,7 C 2,3 C 0,4 km/h (0 Bft)
29/12/2011 10:20 2,5 C 96 % 1032,8 hPa 0,0 mm 0,0 km/h (0 Bft) SO 225 0 min 0 W/m 1,9 C 2,5 C 0,0 km/h (0 Bft)
29/12/2011 10:25 2,7 C 96 % 1033,0 hPa 0,0 mm 0,0 km/h (0 Bft) SO 225 0 min 0 W/m 2,1 C 2,7 C 0,0 km/h (0 Bft)
29/12/2011 10:30 2,9 C 96 % 1032,9 hPa 0,0 mm 3,2 km/h (1 Bft) S-SO 202 0 min 0 W/m 2,3 C 2,9 C 4,3 km/h (1 Bft)
29/12/2011 10:35 3,2 C 96 % 1032,9 hPa 0,0 mm 0,7 km/h (0 Bft) S-SO 202 0 min 0 W/m 2,6 C 3,2 C 4,3 km/h (1 Bft)
29/12/2011 10:40 3,4 C 95 % 1032,9 hPa 0,0 mm 0,4 km/h (0 Bft) S-SO 202 0 min 0 W/m 2,7 C 3,4 C 0,4 km/h (0 Bft)
29/12/2011 10:45 3,6 C 95 % 1033,0 hPa 0,0 mm 2,2 km/h (1 Bft) SO 225 0 min 0 W/m 2,9 C 3,6 C 4,0 km/h (1 Bft)
29/12/2011 10:50 3,8 C 95 % 1033,1 hPa 0,0 mm 2,5 km/h (1 Bft) SO 225 0 min 0 W/m 3,1 C 3,8 C 4,3 km/h (1 Bft)
29/12/2011 10:55 3,8 C 94 % 1033,0 hPa 0,0 mm 1,1 km/h (1 Bft) SO 225 0 min 0 W/m 2,9 C 3,8 C 3,2 km/h (1 Bft)
29/12/2011 11:00 4,1 C 93 % 1033,2 hPa 0,0 mm 2,9 km/h (1 Bft) S-SO 202 0 min 0 W/m 3,1 C 4,1 C 4,3 km/h (1 Bft)
29/12/2011 11:05 4,2 C 92 % 1033,1 hPa 0,0 mm 2,2 km/h (1 Bft) SO 225 0 min 0 W/m 3,0 C 4,2 C 2,2 km/h (1 Bft)
29/12/2011 11:10 4,4 C 91 % 1033,0 hPa 0,0 mm 3,2 km/h (1 Bft) S-SO 202 0 min 0 W/m 3,1 C 4,4 C 4,7 km/h (1 Bft)
29/12/2011 11:15 4,5 C 90 % 1033,0 hPa 0,0 mm 2,5 km/h (1 Bft) SO 225 0 min 0 W/m 3,0 C 4,5 C 4,3 km/h (1 Bft)
29/12/2011 11:20 4,7 C 90 % 1033,0 hPa 0,0 mm 1,1 km/h (1 Bft) S-SO 202 0 min 0 W/m 3,2 C 4,7 C 3,2 km/h (1 Bft)
29/12/2011 11:25 4,9 C 90 % 1033,1 hPa 0,0 mm 0,0 km/h (0 Bft) S-SO 202 0 min 0 W/m 3,4 C 4,9 C 3,2 km/h (1 Bft)
29/12/2011 11:30 5,1 C 89 % 1033,1 hPa 0,0 mm 4,7 km/h (1 Bft) SO 225 0 min 0 W/m 3,4 C 4,3 C 7,9 km/h (2 Bft)
29/12/2011 11:35 5,3 C 89 % 1033,2 hPa 0,0 mm 0,0 km/h (0 Bft) SO 225 0 min 0 W/m 3,6 C 5,3 C 0,0 km/h (0 Bft)
29/12/2011 11:40 5,4 C 89 % 1033,1 hPa 0,0 mm 4,0 km/h (1 Bft) SO 225 0 min 0 W/m 3,7 C 5,4 C 7,6 km/h (2 Bft)
29/12/2011 11:45 5,6 C 88 % 1033,0 hPa 0,0 mm 1,8 km/h (1 Bft) SO 225 0 min 0 W/m 3,8 C 5,6 C 3,6 km/h (1 Bft)
29/12/2011 11:50 5,7 C 88 % 1033,1 hPa 0,0 mm 1,1 km/h (1 Bft) SO 225 0 min 0 W/m 3,9 C 5,7 C 4,0 km/h (1 Bft)
29/12/2011 11:55 5,9 C 87 % 1032,9 hPa 0,0 mm 1,4 km/h (1 Bft) O-SO 247 0 min 0 W/m 3,9 C 5,9 C 1,4 km/h (1 Bft)
29/12/2011 12:00 6,1 C 87 % 1033,0 hPa 0,0 mm 2,5 km/h (1 Bft) SO 225 0 min 0 W/m 4,1 C 6,1 C 7,6 km/h (2 Bft)
29/12/2011 12:05 6,3 C 86 % 1033,1 hPa 0,0 mm 0,4 km/h (0 Bft) O-SO 247 0 min 0 W/m 4,1 C 6,3 C 3,2 km/h (1 Bft)
29/12/2011 12:10 6,4 C 86 % 1033,0 hPa 0,0 mm 0,4 km/h (0 Bft) O-SO 247 0 min 0 W/m 4,2 C 6,4 C 3,2 km/h (1 Bft)
29/12/2011 12:15 6,5 C 85 % 1032,8 hPa 0,0 mm 1,8 km/h (1 Bft) S-SO 202 0 min 0 W/m 4,2 C 6,5 C 3,2 km/h (1 Bft)
29/12/2011 12:20 6,6 C 86 % 1032,9 hPa 0,0 mm 2,9 km/h (1 Bft) S-SO 202 0 min 0 W/m 4,4 C 6,6 C 4,3 km/h (1 Bft)
29/12/2011 12:25 6,9 C 86 % 1032,9 hPa 0,0 mm 2,2 km/h (1 Bft) S-SO 202 0 min 0 W/m 4,7 C 6,9 C 4,3 km/h (1 Bft)
29/12/2011 12:30 7,1 C 85 % 1032,8 hPa 0,0 mm 1,1 km/h (1 Bft) O-SO 247 0 min 0 W/m 4,8 C 7,1 C 3,6 km/h (1 Bft)
29/12/2011 12:35 7,2 C 85 % 1032,7 hPa 0,0 mm 0,4 km/h (0 Bft) O-SO 247 0 min 0 W/m 4,9 C 7,2 C 4,0 km/h (1 Bft)
29/12/2011 12:40 7,4 C 84 % 1032,7 hPa 0,0 mm 0,4 km/h (0 Bft) O-SO 247 0 min 0 W/m 4,9 C 7,4 C 3,2 km/h (1 Bft)
29/12/2011 12:45 7,8 C 85 % 1032,6 hPa 0,0 mm 0,0 km/h (0 Bft) SO 225 0 min 0 W/m 5,4 C 7,8 C 2,9 km/h (1 Bft)
29/12/2011 12:50 7,9 C 83 % 1032,6 hPa 0,0 mm 0,7 km/h (0 Bft) SO 225 0 min 0 W/m 5,2 C 7,9 C 0,7 km/h (0 Bft)
29/12/2011 12:55 8,2 C 83 % 1032,5 hPa 0,0 mm 1,1 km/h (1 Bft) O-SO 247 0 min 0 W/m 5,5 C 8,2 C 1,1 km/h (1 Bft)
29/12/2011 13:00 8,3 C 80 % 1032,4 hPa 0,0 mm 3,2 km/h (1 Bft) O-SO 247 0 min 0 W/m 5,1 C 8,3 C 6,1 km/h (2 Bft)
29/12/2011 13:05 8,2 C 80 % 1032,4 hPa 0,0 mm 2,5 km/h (1 Bft) SO 225 0 min 0 W/m 5,0 C 8,2 C 4,0 km/h (1 Bft)
29/12/2011 13:10 8,1 C 81 % 1032,5 hPa 0,0 mm 1,1 km/h (1 Bft) S-SO 202 0 min 0 W/m 5,0 C 8,1 C 4,3 km/h (1 Bft)
29/12/2011 13:15 8,2 C 80 % 1032,4 hPa 0,0 mm 1,8 km/h (1 Bft) SO 225 0 min 0 W/m 5,0 C 8,2 C 3,6 km/h (1 Bft)
29/12/2011 13:20 8,2 C 79 % 1032,4 hPa 0,0 mm 1,8 km/h (1 Bft) O-SO 247 0 min 0 W/m 4,8 C 8,2 C 8,3 km/h (2 Bft)
29/12/2011 13:25 8,3 C 80 % 1032,6 hPa 0,0 mm 2,9 km/h (1 Bft) SO 225 0 min 0 W/m 5,1 C 8,3 C 3,6 km/h (1 Bft)
29/12/2011 13:30 8,3 C 80 % 1032,3 hPa 0,0 mm 6,5 km/h (2 Bft) O-SO 247 0 min 0 W/m 5,1 C 7,4 C 9,0 km/h (2 Bft)
29/12/2011 13:35 8,4 C 79 % 1032,3 hPa 0,0 mm 0,7 km/h (0 Bft) O-SO 247 0 min 0 W/m 5,0 C 8,4 C 7,9 km/h (2 Bft)
29/12/2011 13:40 8,4 C 80 % 1032,3 hPa 0,0 mm 2,5 km/h (1 Bft) O 270 0 min 0 W/m 5,2 C 8,4 C 8,3 km/h (2 Bft)
29/12/2011 13:45 8,5 C 79 % 1032,3 hPa 0,0 mm 1,1 km/h (1 Bft) SO 225 0 min 0 W/m 5,1 C 8,5 C 3,6 km/h (1 Bft)
29/12/2011 13:50 8,4 C 78 % 1032,3 hPa 0,0 mm 5,8 km/h (2 Bft) O-SO 247 0 min 0 W/m 4,8 C 7,7 C 12,6 km/h (3 Bft)
29/12/2011 13:55 8,4 C 78 % 1032,3 hPa 0,0 mm 0,0 km/h (0 Bft) O-SO 247 0 min 0 W/m 4,8 C 8,4 C 4,0 km/h (1 Bft)
29/12/2011 14:00 8,5 C 79 % 1032,2 hPa 0,0 mm 4,3 km/h (1 Bft) S-SO 202 0 min 0 W/m 5,1 C 8,5 C 7,9 km/h (2 Bft)
29/12/2011 14:05 8,5 C 78 % 1032,1 hPa 0,0 mm 1,4 km/h (1 Bft) O-SO 247 0 min 0 W/m 4,9 C 8,5 C 7,6 km/h (2 Bft)
29/12/2011 14:10 8,5 C 78 % 1032,4 hPa 0,0 mm 2,2 km/h (1 Bft) O-SO 247 0 min 0 W/m 4,9 C 8,5 C 2,2 km/h (1 Bft)
29/12/2011 14:15 8,6 C 78 % 1032,3 hPa 0,0 mm 4,0 km/h (1 Bft) SO 225 0 min 0 W/m 5,0 C 8,6 C 7,9 km/h (2 Bft)
29/12/2011 14:20 8,6 C 78 % 1032,2 hPa 0,0 mm 5,0 km/h (1 Bft) O-NO 292 0 min 0 W/m 5,0 C 8,2 C 10,8 km/h (2 Bft)
29/12/2011 14:25 8,6 C 77 % 1032,1 hPa 0,0 mm 1,4 km/h (1 Bft) O-SO 247 0 min 0 W/m 4,8 C 8,6 C 4,0 km/h (1 Bft)
29/12/2011 14:30 8,6 C 77 % 1031,6 hPa 0,0 mm 0,4 km/h (0 Bft) S 180 0 min 0 W/m 4,8 C 8,6 C 0,4 km/h (0 Bft)
29/12/2011 14:35 8,6 C 78 % 1031,6 hPa 0,0 mm 0,0 km/h (0 Bft) SO 225 0 min 0 W/m 5,0 C 8,6 C 0,0 km/h (0 Bft)
29/12/2011 14:40 8,6 C 78 % 1031,6 hPa 0,0 mm 2,9 km/h (1 Bft) O 270 0 min 0 W/m 5,0 C 8,6 C 3,2 km/h (1 Bft)
29/12/2011 14:45 8,6 C 77 % 1031,5 hPa 0,0 mm 0,4 km/h (0 Bft) O 270 0 min 0 W/m 4,8 C 8,6 C 0,4 km/h (0 Bft)
29/12/2011 14:50 8,5 C 77 % 1031,4 hPa 0,0 mm 4,7 km/h (1 Bft) O-SO 247 0 min 0 W/m 4,7 C 8,2 C 7,6 km/h (2 Bft)
29/12/2011 14:55 8,3 C 77 % 1031,2 hPa 0,0 mm 2,5 km/h (1 Bft) O-SO 247 0 min 0 W/m 4,5 C 8,3 C 10,4 km/h (2 Bft)
29/12/2011 15:00 8,0 C 77 % 1031,2 hPa 0,0 mm 4,0 km/h (1 Bft) O 270 0 min 0 W/m 4,2 C 8,0 C 13,0 km/h (3 Bft)
29/12/2011 15:05 7,8 C 78 % 1031,0 hPa 0,0 mm 2,2 km/h (1 Bft) O-SO 247 0 min 0 W/m 4,2 C 7,8 C 9,4 km/h (2 Bft)
29/12/2011 15:10 7,6 C 80 % 1030,9 hPa 0,0 mm 2,5 km/h (1 Bft) O-SO 247 0 min 0 W/m 4,4 C 7,6 C 3,6 km/h (1 Bft)
29/12/2011 15:15 7,5 C 80 % 1030,8 hPa 0,0 mm 3,6 km/h (1 Bft) SO 225 0 min 0 W/m 4,3 C 7,5 C 10,8 km/h (2 Bft)
29/12/2011 15:20 7,4 C 80 % 1030,8 hPa 0,0 mm 0,0 km/h (0 Bft) O-SO 247 0 min 0 W/m 4,2 C 7,4 C 3,2 km/h (1 Bft)
29/12/2011 15:25 7,4 C 80 % 1030,5 hPa 0,0 mm 4,3 km/h (1 Bft) O 270 0 min 0 W/m 4,2 C 7,4 C 4,3 km/h (1 Bft)
29/12/2011 15:30 7,3 C 81 % 1030,4 hPa 0,0 mm 0,0 km/h (0 Bft) SO 225 0 min 0 W/m 4,3 C 7,3 C 0,0 km/h (0 Bft)
29/12/2011 15:35 7,2 C 80 % 1030,3 hPa 0,0 mm 0,4 km/h (0 Bft) O 270 0 min 0 W/m 4,0 C 7,2 C 4,0 km/h (1 Bft)
29/12/2011 15:40 7,1 C 80 % 1030,3 hPa 0,0 mm 0,7 km/h (0 Bft) O 270 0 min 0 W/m 3,9 C 7,1 C 6,8 km/h (2 Bft)
29/12/2011 15:45 7,1 C 80 % 1030,1 hPa 0,0 mm 3,2 km/h (1 Bft) O 270 0 min 0 W/m 3,9 C 7,1 C 3,6 km/h (1 Bft)
29/12/2011 15:50 6,9 C 80 % 1030,0 hPa 0,0 mm 0,4 km/h (0 Bft) O-SO 247 0 min 0 W/m 3,7 C 6,9 C 4,3 km/h (1 Bft)
29/12/2011 15:55 6,9 C 80 % 1030,1 hPa 0,0 mm 2,5 km/h (1 Bft) O 270 0 min 0 W/m 3,7 C 6,9 C 6,8 km/h (2 Bft)
29/12/2011 16:00 6,8 C 81 % 1030,0 hPa 0,0 mm 0,4 km/h (0 Bft) O-SO 247 0 min 0 W/m 3,8 C 6,8 C 2,9 km/h (1 Bft)
29/12/2011 16:05 6,6 C 81 % 1030,0 hPa 0,0 mm 1,8 km/h (1 Bft) O-SO 247 0 min 0 W/m 3,6 C 6,6 C 2,9 km/h (1 Bft)
29/12/2011 16:10 6,5 C 82 % 1029,9 hPa 0,0 mm 0,0 km/h (0 Bft) SO 225 0 min 0 W/m 3,7 C 6,5 C 0,0 km/h (0 Bft)
29/12/2011 16:15 6,4 C 82 % 1029,9 hPa 0,0 mm 0,0 km/h (0 Bft) O-SO 247 0 min 0 W/m 3,6 C 6,4 C 0,0 km/h (0 Bft)
29/12/2011 16:20 6,4 C 82 % 1029,9 hPa 0,0 mm 0,0 km/h (0 Bft) O-SO 247 0 min 0 W/m 3,6 C 6,4 C 0,0 km/h (0 Bft)
29/12/2011 16:25 6,4 C 83 % 1030,0 hPa 0,0 mm 0,0 km/h (0 Bft) O-SO 247 0 min 0 W/m 3,7 C 6,4 C 0,0 km/h (0 Bft)
29/12/2011 16:30 6,3 C 82 % 1030,1 hPa 0,0 mm 0,0 km/h (0 Bft) O-SO 247 0 min 0 W/m 3,5 C 6,3 C 0,0 km/h (0 Bft)
29/12/2011 16:35 6,3 C 83 % 1030,1 hPa 0,0 mm 0,0 km/h (0 Bft) O-SO 247 0 min 0 W/m 3,6 C 6,3 C 1,4 km/h (1 Bft)
29/12/2011 16:40 6,2 C 83 % 1030,1 hPa 0,0 mm 1,8 km/h (1 Bft) O-SO 247 0 min 0 W/m 3,5 C 6,2 C 6,1 km/h (2 Bft)
29/12/2011 16:45 6,2 C 84 % 1030,3 hPa 0,0 mm 0,4 km/h (0 Bft) O 270 0 min 0 W/m 3,7 C 6,2 C 0,4 km/h (0 Bft)
29/12/2011 16:50 6,1 C 84 % 1030,3 hPa 0,0 mm 0,7 km/h (0 Bft) O-SO 247 0 min 0 W/m 3,6 C 6,1 C 4,0 km/h (1 Bft)
29/12/2011 16:55 6,1 C 84 % 1030,3 hPa 0,0 mm 0,0 km/h (0 Bft) O-SO 247 0 min 0 W/m 3,6 C 6,1 C 0,0 km/h (0 Bft)
29/12/2011 17:00 6,1 C 84 % 1030,1 hPa 0,0 mm 0,4 km/h (0 Bft) SO 225 0 min 0 W/m 3,6 C 6,1 C 0,4 km/h (0 Bft)
29/12/2011 17:05 6,0 C 84 % 1030,1 hPa 0,0 mm 1,1 km/h (1 Bft) SO 225 0 min 0 W/m 3,5 C 6,0 C 1,1 km/h (1 Bft)
29/12/2011 17:10 5,9 C 84 % 1030,1 hPa 0,0 mm 2,5 km/h (1 Bft) O 270 0 min 0 W/m 3,4 C 5,9 C 4,7 km/h (1 Bft)
29/12/2011 17:15 5,9 C 84 % 1030,0 hPa 0,0 mm 0,7 km/h (0 Bft) SO 225 0 min 0 W/m 3,4 C 5,9 C 3,6 km/h (1 Bft)
29/12/2011 17:20 5,9 C 84 % 1029,9 hPa 0,0 mm 3,2 km/h (1 Bft) SO 225 0 min 0 W/m 3,4 C 5,9 C 6,5 km/h (2 Bft)
29/12/2011 17:25 5,9 C 85 % 1029,9 hPa 0,0 mm 1,8 km/h (1 Bft) SO 225 0 min 0 W/m 3,6 C 5,9 C 4,0 km/h (1 Bft)
29/12/2011 17:30 5,9 C 85 % 1029,8 hPa 0,0 mm 2,2 km/h (1 Bft) S-SO 202 0 min 0 W/m 3,6 C 5,9 C 4,3 km/h (1 Bft)
29/12/2011 17:35 5,8 C 85 % 1029,7 hPa 0,0 mm 1,8 km/h (1 Bft) SO 225 0 min 0 W/m 3,5 C 5,8 C 4,3 km/h (1 Bft)
29/12/2011 17:40 5,8 C 85 % 1029,7 hPa 0,0 mm 4,3 km/h (1 Bft) S 180 0 min 0 W/m 3,5 C 5,8 C 4,3 km/h (1 Bft)
29/12/2011 17:45 5,8 C 85 % 1029,9 hPa 0,0 mm 0,0 km/h (0 Bft) O-SO 247 0 min 0 W/m 3,5 C 5,8 C 0,0 km/h (0 Bft)
29/12/2011 17:50 5,8 C 85 % 1030,0 hPa 0,0 mm 0,0 km/h (0 Bft) O-SO 247 0 min 0 W/m 3,5 C 5,8 C 0,0 km/h (0 Bft)
29/12/2011 17:55 5,8 C 85 % 1030,0 hPa 0,0 mm 1,1 km/h (1 Bft) SO 225 0 min 0 W/m 3,5 C 5,8 C 1,1 km/h (1 Bft)
29/12/2011 18:00 5,7 C 85 % 1029,8 hPa 0,0 mm 4,7 km/h (1 Bft) SO 225 0 min 0 W/m 3,4 C 5,0 C 9,0 km/h (2 Bft)
29/12/2011 18:05 5,6 C 85 % 1029,8 hPa 0,0 mm 6,5 km/h (2 Bft) S-SO 202 0 min 0 W/m 3,3 C 4,3 C 10,1 km/h (2 Bft)
29/12/2011 18:10 5,6 C 85 % 1029,8 hPa 0,0 mm 1,1 km/h (1 Bft) SO 225 0 min 0 W/m 3,3 C 5,6 C 4,0 km/h (1 Bft)
29/12/2011 18:15 5,5 C 86 % 1029,8 hPa 0,0 mm 5,0 km/h (1 Bft) SO 225 0 min 0 W/m 3,3 C 4,7 C 10,4 km/h (2 Bft)
29/12/2011 18:20 5,5 C 86 % 1029,8 hPa 0,0 mm 0,0 km/h (0 Bft) S-SO 202 0 min 0 W/m 3,3 C 5,5 C 4,0 km/h (1 Bft)
29/12/2011 18:25 5,5 C 86 % 1029,9 hPa 0,0 mm 0,4 km/h (0 Bft) O-SO 247 0 min 0 W/m 3,3 C 5,5 C 0,4 km/h (0 Bft)
29/12/2011 18:30 5,4 C 86 % 1029,8 hPa 0,0 mm 0,0 km/h (0 Bft) SO 225 0 min 0 W/m 3,3 C 5,4 C 3,2 km/h (1 Bft)
29/12/2011 18:35 5,4 C 86 % 1029,8 hPa 0,0 mm 4,7 km/h (1 Bft) S-SO 202 0 min 0 W/m 3,3 C 4,7 C 7,9 km/h (2 Bft)
29/12/2011 18:40 5,3 C 87 % 1029,8 hPa 0,0 mm 3,2 km/h (1 Bft) SO 225 0 min 0 W/m 3,3 C 5,3 C 4,3 km/h (1 Bft)
29/12/2011 18:45 5,2 C 87 % 1029,8 hPa 0,0 mm 4,3 km/h (1 Bft) SO 225 0 min 0 W/m 3,2 C 5,2 C 6,8 km/h (2 Bft)
29/12/2011 18:50 5,1 C 88 % 1029,6 hPa 0,0 mm 3,2 km/h (1 Bft) SO 225 0 min 0 W/m 3,3 C 5,1 C 6,5 km/h (2 Bft)
29/12/2011 18:55 5,0 C 88 % 1029,5 hPa 0,0 mm 4,0 km/h (1 Bft) SO 225 0 min 0 W/m 3,2 C 5,0 C 6,5 km/h (2 Bft)
29/12/2011 19:00 4,9 C 88 % 1029,8 hPa 0,0 mm 2,9 km/h (1 Bft) O-SO 247 0 min 0 W/m 3,1 C 4,9 C 7,9 km/h (2 Bft)
29/12/2011 19:05 4,8 C 88 % 1030,1 hPa 0,0 mm 0,0 km/h (0 Bft) SO 225 0 min 0 W/m 3,0 C 4,8 C 0,0 km/h (0 Bft)
29/12/2011 19:10 4,8 C 89 % 1029,8 hPa 0,0 mm 4,3 km/h (1 Bft) S-SO 202 0 min 0 W/m 3,1 C 4,8 C 8,6 km/h (2 Bft)
29/12/2011 19:15 4,8 C 90 % 1029,8 hPa 0,0 mm 8,3 km/h (2 Bft) S-SO 202 0 min 0 W/m 3,3 C 2,8 C 10,1 km/h (2 Bft)
29/12/2011 19:20 4,8 C 90 % 1029,8 hPa 0,0 mm 0,7 km/h (0 Bft) O-SO 247 0 min 0 W/m 3,3 C 4,8 C 2,9 km/h (1 Bft)
29/12/2011 19:25 4,8 C 90 % 1029,9 hPa 0,0 mm 5,4 km/h (2 Bft) SO 225 0 min 0 W/m 3,3 C 3,7 C 6,5 km/h (2 Bft)
29/12/2011 19:30 4,8 C 90 % 1029,8 hPa 0,0 mm 1,4 km/h (1 Bft) SO 225 0 min 0 W/m 3,3 C 4,8 C 2,9 km/h (1 Bft)
29/12/2011 19:35 4,8 C 90 % 1029,8 hPa 0,0 mm 4,0 km/h (1 Bft) SO 225 0 min 0 W/m 3,3 C 4,8 C 8,3 km/h (2 Bft)
29/12/2011 19:40 4,8 C 91 % 1029,9 hPa 0,0 mm 2,2 km/h (1 Bft) SO 225 0 min 0 W/m 3,5 C 4,8 C 5,8 km/h (2 Bft)
29/12/2011 19:45 4,8 C 91 % 1029,9 hPa 0,0 mm 7,6 km/h (2 Bft) SO 225 0 min 0 W/m 3,5 C 3,0 C 13,0 km/h (3 Bft)
29/12/2011 19:50 4,8 C 91 % 1029,8 hPa 0,0 mm 6,5 km/h (2 Bft) O-SO 247 0 min 0 W/m 3,5 C 3,3 C 7,2 km/h (2 Bft)
29/12/2011 19:55 4,8 C 91 % 1029,7 hPa 0,0 mm 2,9 km/h (1 Bft) SO 225 0 min 0 W/m 3,5 C 4,8 C 6,5 km/h (2 Bft)
29/12/2011 20:00 4,7 C 91 % 1029,6 hPa 0,0 mm 5,4 km/h (2 Bft) O-SO 247 0 min 0 W/m 3,4 C 3,6 C 9,0 km/h (2 Bft)
29/12/2011 20:05 4,6 C 91 % 1029,5 hPa 0,0 mm 4,7 km/h (1 Bft) SO 225 0 min 0 W/m 3,3 C 3,8 C 9,4 km/h (2 Bft)
29/12/2011 20:10 4,5 C 92 % 1029,4 hPa 0,0 mm 3,2 km/h (1 Bft) S-SO 202 0 min 0 W/m 3,3 C 4,5 C 6,8 km/h (2 Bft)
29/12/2011 20:15 4,5 C 92 % 1029,4 hPa 0,0 mm 5,8 km/h (2 Bft) S-SO 202 0 min 0 W/m 3,3 C 3,2 C 9,4 km/h (2 Bft)
29/12/2011 20:20 4,5 C 92 % 1029,5 hPa 0,0 mm 6,5 km/h (2 Bft) SO 225 0 min 0 W/m 3,3 C 3,0 C 8,3 km/h (2 Bft)
29/12/2011 20:25 4,5 C 92 % 1029,5 hPa 0,0 mm 3,2 km/h (1 Bft) SO 225 0 min 0 W/m 3,3 C 4,5 C 7,2 km/h (2 Bft)
29/12/2011 20:30 4,6 C 93 % 1029,3 hPa 0,0 mm 6,5 km/h (2 Bft) SO 225 0 min 0 W/m 3,6 C 3,1 C 11,9 km/h (2 Bft)
29/12/2011 20:35 4,6 C 93 % 1029,3 hPa 0,0 mm 4,3 km/h (1 Bft) O-SO 247 0 min 0 W/m 3,6 C 4,6 C 6,8 km/h (2 Bft)
29/12/2011 20:40 4,8 C 93 % 1029,2 hPa 0,0 mm 4,0 km/h (1 Bft) SO 225 0 min 0 W/m 3,8 C 4,8 C 7,9 km/h (2 Bft)
29/12/2011 20:45 4,8 C 93 % 1029,3 hPa 0,0 mm 4,3 km/h (1 Bft) S-SO 202 0 min 0 W/m 3,8 C 4,8 C 7,9 km/h (2 Bft)
29/12/2011 20:50 4,8 C 93 % 1029,3 hPa 0,0 mm 6,1 km/h (2 Bft) S-SO 202 0 min 0 W/m 3,8 C 3,5 C 10,1 km/h (2 Bft)
29/12/2011 20:55 4,8 C 93 % 1029,2 hPa 0,0 mm 9,0 km/h (2 Bft) SO 225 0 min 0 W/m 3,8 C 2,6 C 9,0 km/h (2 Bft)
29/12/2011 21:00 4,8 C 93 % 1029,2 hPa 0,0 mm 4,0 km/h (1 Bft) O-SO 247 0 min 0 W/m 3,8 C 4,8 C 7,2 km/h (2 Bft)
29/12/2011 21:05 4,8 C 93 % 1029,2 hPa 0,0 mm 4,7 km/h (1 Bft) SO 225 0 min 0 W/m 3,8 C 4,0 C 14,8 km/h (3 Bft)
29/12/2011 21:10 4,9 C 93 % 1029,2 hPa 0,0 mm 7,2 km/h (2 Bft) S-SO 202 0 min 0 W/m 3,9 C 3,2 C 8,3 km/h (2 Bft)
29/12/2011 21:15 4,9 C 93 % 1029,3 hPa 0,0 mm 4,7 km/h (1 Bft) SO 225 0 min 0 W/m 3,9 C 4,1 C 7,9 km/h (2 Bft)
29/12/2011 21:20 5,0 C 93 % 1029,4 hPa 0,0 mm 1,4 km/h (1 Bft) SO 225 0 min 0 W/m 4,0 C 5,0 C 4,3 km/h (1 Bft)
29/12/2011 21:25 5,1 C 93 % 1029,4 hPa 0,0 mm 1,4 km/h (1 Bft) N 360 0 min 0 W/m 4,1 C 5,1 C 1,4 km/h (1 Bft)
29/12/2011 21:30 5,1 C 93 % 1029,3 hPa 0,0 mm 4,0 km/h (1 Bft) SO 225 0 min 0 W/m 4,1 C 5,1 C 9,4 km/h (2 Bft)
29/12/2011 21:35 5,1 C 93 % 1029,2 hPa 0,0 mm 2,9 km/h (1 Bft) SO 225 0 min 0 W/m 4,1 C 5,1 C 2,9 km/h (1 Bft)
29/12/2011 21:40 5,1 C 93 % 1029,3 hPa 0,0 mm 6,8 km/h (2 Bft) S-SO 202 0 min 0 W/m 4,1 C 3,6 C 11,9 km/h (2 Bft)
29/12/2011 21:45 5,1 C 93 % 1029,5 hPa 0,0 mm 1,4 km/h (1 Bft) O-SO 247 0 min 0 W/m 4,1 C 5,1 C 1,4 km/h (1 Bft)
29/12/2011 21:50 5,2 C 93 % 1029,4 hPa 0,0 mm 1,1 km/h (1 Bft) S-SO 202 0 min 0 W/m 4,2 C 5,2 C 3,6 km/h (1 Bft)
29/12/2011 21:55 5,1 C 93 % 1029,3 hPa 0,0 mm 3,2 km/h (1 Bft) SO 225 0 min 0 W/m 4,1 C 5,1 C 3,2 km/h (1 Bft)
29/12/2011 22:00 5,1 C 93 % 1029,1 hPa 0,0 mm 3,2 km/h (1 Bft) N 360 0 min 0 W/m 4,1 C 5,1 C 3,2 km/h (1 Bft)
_ Min-Heure 09:05 15:00 22:00 - 19:05 - - - - 09:05 09:05 19:05
Minimum _ -0,2 C 77 % 1029,1 hPa - 0,0 km/h (0 Bft) - - - - -0,9 C -0,2 C 0,0 km/h (0 Bft)
_ Max-Heure 14:45 10:35 11:35 05:00 00:30 - - 22:00 22:00 12:55 14:45 00:30
Maximum _ 8,6 C 96 % 1033,2 hPa 0,1 mm 11,9 km/h
NO (2 Bft)
- - 0 min 0 W/m 5,5 C 8,6 C 15,5 km/h
NO (3 Bft)
Moyenne _ 4,0 C 90 % 1031,3 hPa #0,1 mm 1,6 km/h (1 Bft) SO - #0 min. 0 W/m 2,5 C 3,9 C 3,3 km/h (1 Bft)
Saint Bonnet de Bellac- Haute Vienne - France